Lexington, KY

4:33 AM EDT on March 27, 2017 (GMT -0400)
Blue Grass

Weather History for KLEX - April, 2013

Change the Weather History Date:

Saturday, April 20, 2013

  Actual Average Record
Temperature  
Mean Temperature 45 °F 57 °F  
Max Temperature 56 °F 67 °F 85 °F (1957)
Min Temperature 34 °F 46 °F 25 °F (1983)
Degree Days  
Heating Degree Days 20 9  
Month to date heating degree days 193 236  
Since 1 July heating degree days 4484 4412  
Cooling Degree Days 0 1  
Month to date cooling degree days 29 11  
Year to date cooling degree days 29 13  
Moisture  
Dew Point 30 °F    
Average Humidity 62    
Maximum Humidity 89    
Minimum Humidity 35    
Precipitation  
Precipitation 0.00 in 0.13 in 1.83 in (1920)
Month to date precipitation 3.08 2.28  
Year to date precipitation 14.41 12.75  
Snow  
Snow 0.00 in 0.00 in 0.10 in (1953)
Month to date snowfall 0.0 0.3  
Since 1 July snowfall 12.5 13.0  
Snow Depth 0.00 in    
Sea Level Pressure  
Sea Level Pressure 30.22 in    
Wind  
Wind Speed 8 mph (West)    
Max Wind Speed 16 mph    
Max Gust Speed 22 mph    
Visibility 10 miles    
Events      
T = Trace of Precipitation, MM = Missing Value Source: NWS Daily Summary

Daily Weather History Graph

Daily Weather History Graph

Search for Another Location

Airport or City:

Trip Planner

Search our weather history database for the weather conditions in past years. The results will help you decide how hot, cold, wet, or windy it might be!

Date:

Astronomy

Apr. 20, 2013 Rise Set
Actual Time 6:55 AM EDT 8:19 PM EDT
Civil Twilight 6:28 AM EDT 8:46 PM EDT
Nautical Twilight 5:55 AM EDT 9:20 PM EDT
Astronomical Twilight 5:20 AM EDT 9:54 PM EDT
Moon 3:07 PM EDT (4/20) 3:39 AM EDT (4/20)
Length of Visible Light 14h 18m
Length of Day
13h 23m
Waxing Gibbous, 71% of the Moon is Illuminated
Apr 20
Waxing Gibbous
Apr 25
Full
May 2
Last Quarter
May 9
New
May 18
First Quarter

Hourly Weather History & Observations

Time (EDT) Temp. Windchill Dew Point Humidity Pressure Visibility Wind Dir Wind Speed Gust Speed Precip Events Conditions
12:54 AM 37.0 °F 31.0 °F 32.0 °F 82% 30.08 in 10.0 mi SW 8.1 mph - N/A   Clear
1:54 AM 37.0 °F 30.4 °F 30.9 °F 79% 30.09 in 10.0 mi SSW 9.2 mph - N/A   Clear
2:54 AM 36.0 °F 29.0 °F 30.9 °F 82% 30.08 in 10.0 mi SW 9.2 mph - N/A   Clear
3:54 AM 35.1 °F 27.9 °F 30.9 °F 85% 30.09 in 10.0 mi SSW 9.2 mph - N/A   Clear
4:54 AM 35.1 °F 28.6 °F 30.9 °F 85% 30.11 in 10.0 mi SSW 8.1 mph - N/A   Clear
5:54 AM 34.0 °F 28.0 °F 30.9 °F 89% 30.12 in 10.0 mi SSW 6.9 mph - N/A   Clear
6:54 AM 34.0 °F 28.0 °F 30.9 °F 89% 30.14 in 10.0 mi SW 6.9 mph - N/A   Clear
7:54 AM 36.0 °F 30.3 °F 32.0 °F 86% 30.17 in 10.0 mi SW 6.9 mph - N/A   Clear
8:54 AM 41.0 °F 35.8 °F 33.1 °F 73% 30.20 in 10.0 mi West 8.1 mph - N/A   Clear
9:54 AM 44.1 °F 39.5 °F 33.1 °F 65% 30.22 in 10.0 mi WNW 8.1 mph - N/A   Clear
10:54 AM 46.0 °F 41.9 °F 33.1 °F 61% 30.24 in 10.0 mi WNW 8.1 mph - N/A   Scattered Clouds
11:54 AM 48.9 °F - 30.9 °F 50% 30.25 in 10.0 mi West 11.5 mph 19.6 mph N/A   Scattered Clouds
12:54 PM 51.1 °F - 30.9 °F 46% 30.26 in 10.0 mi WSW 9.2 mph 19.6 mph N/A   Partly Cloudy
1:54 PM 51.1 °F - 30.0 °F 44% 30.25 in 10.0 mi West 10.4 mph - N/A   Scattered Clouds
2:54 PM 53.1 °F - 30.0 °F 41% 30.26 in 10.0 mi NW 10.4 mph 18.4 mph N/A   Partly Cloudy
3:54 PM 55.0 °F - 30.0 °F 38% 30.26 in 10.0 mi WNW 9.2 mph - N/A   Scattered Clouds
4:54 PM 55.0 °F - 28.0 °F 35% 30.26 in 10.0 mi NNW 8.1 mph 17.3 mph N/A   Partly Cloudy
5:54 PM 55.0 °F - 28.9 °F 37% 30.27 in 10.0 mi Variable 3.5 mph - N/A   Clear
6:54 PM 54.0 °F - 27.0 °F 35% 30.27 in 10.0 mi NNW 5.8 mph - N/A   Clear
7:54 PM 50.0 °F - 28.0 °F 43% 30.28 in 10.0 mi North 4.6 mph - N/A   Clear
8:54 PM 46.9 °F - 28.0 °F 48% 30.30 in 10.0 mi NNE 4.6 mph - N/A   Clear
9:54 PM 44.1 °F 40.8 °F 28.9 °F 55% 30.33 in 10.0 mi NNE 5.8 mph - N/A   Clear
10:54 PM 42.1 °F 36.6 °F 28.9 °F 60% 30.36 in 10.0 mi NE 9.2 mph - N/A   Clear
11:54 PM 41.0 °F 35.2 °F 28.9 °F 62% 30.37 in 10.0 mi NE 9.2 mph - N/A   Clear